Regional Weather Roundup
Issued by NWS

Home | Current Version | Previous Version | Graphics & Text | Print | Product List | Glossary On
Versions: 1 2 3 4 5 6 7 8 9 10 11 12 13 14 15 16 17 18 19 20 21 22 23 24 25 26 27 28 29 30 31 32 33 34 35 36 37 38 39 40 41 42 43 44 45 46 47 48 49 50
000
ASUS43 KLSX 261607
RWRMO

WEATHER SUMMARY FOR MISSOURI
NATIONAL WEATHER SERVICE SPRINGFIELD MO
1100 AM CDT TUE MAY 26 2015

NOTE: "FAIR" INDICATES FEW OR NO CLOUDS BELOW 12,000 FEET WITH NO
       SIGNIFICANT WEATHER AND/OR OBSTRUCTIONS TO VISIBILITY.
       CURRENT SKY AND/OR WEATHER CONDITIONS ARE NOT AVAILABLE FOR
       CHILLICOTHE AND FARMINGTON.

MOZ001>031-035>038-043-044-053-054-261700-
...NORTHERN AND WESTERN MISSOURI...

CITY           SKY/WX    TMP DP  RH WIND       PRES   REMARKS
KANSAS CTY INT PTSUNNY   70  62  76 S21G26    29.84S
KANSAS C DTWN  SUNNY     72  61  68 SW14      29.84F
LEE`S SUMMIT   MOSUNNY   70  61  73 SW16G22   29.87S
ST JOSEPH      PTSUNNY   68  61  78 SW14      29.82S
CHILLICOTHE      N/A     69  61  75 S12       29.85S
KIRKSVILLE     PTSUNNY   69  61  75 SW12G23   29.83R

$$
MOZ066>068-077>081-088>096-101>105-261700-
...SOUTHWEST MISSOURI...

CITY           SKY/WX    TMP DP  RH WIND       PRES   REMARKS
SPRINGFIELD    PTSUNNY   68  59  73 SW15G22   29.95F
JOPLIN         PTSUNNY   68  60  75 SW10      29.97R

$$
MOZ032>034-039>042-045>050-055>058-069>072-261700-
...CENTRAL MISSOURI...

CITY           SKY/WX    TMP DP  RH WIND       PRES   REMARKS
COLUMBIA       CLOUDY    67  63  87 SW13      29.89R
JEFFERSON CITY CLOUDY    70  60  70 SW17G28   29.89R
ROLLA          CLOUDY    67  60  78 SW16G24   29.91R
SEDALIA        PTSUNNY   69  60  73 SW14G23   29.90R
WHITEMAN AFB   PTSUNNY   70  61  73 SW14G22   29.88R
WARRENSBURG    MOSUNNY   70  61  73 SW15G22   29.88S HAZE
OSAGE BEACH    CLOUDY    70  59  68 SW15G23   29.92R

$$
MOZ051-052-059>065-261700-
...EAST CENTRAL MISSOURI...

CITY           SKY/WX    TMP DP  RH WIND       PRES   REMARKS
ST LOUIS INTL  PTSUNNY   76  62  62 SW17G28   29.88S
SPIRIT OF STL  PTSUNNY   74  62  66 SW16G28   29.87S
ST CHARLES     MOSUNNY   75  62  64 SW22G29   29.86S

$$
MOZ072>076-082>087-097>100-106>115-261700-
...SOUTH CENTRAL AND SOUTHEAST MISSOURI...

CITY           SKY/WX    TMP DP  RH WIND       PRES   REMARKS
CAPE GIRARDEAU CLOUDY    71  64  78 SW17      29.99R
FARMINGTON     CLOUDY    70  59  68 SW15G22   29.99R
POPLAR BLUFF   CLOUDY    70  61  73 SW14      29.99R
WEST PLAINS    CLOUDY    66  59  78 SW14G23   30.00R

$$


USA.gov is the U.S. government's official web portal to all federal, state and local government web resources and services.